Nolin River Lake Weather Center

Moon Phase Calendar



Nolin River Lake Water Level
Online Cameras

 


      

Current Conditions in Brownsville
10/20/2021 6:26:44 PM

65°F
Feels Like 65
Clouds
Humidity
80%
Pressure
30.06"
Wind
5.1 mph (SSW)
Dew Point
59°F
UV Index
0/10 (Low)
Visibility
6 mi

Hourly Forecast

Date & Time Wed, Oct 20
6:00 PM
Wed, Oct 20
7:00 PM
Wed, Oct 20
8:00 PM
Wed, Oct 20
9:00 PM
Wed, Oct 20
10:00 PM
Wed, Oct 20
11:00 PM
Thu, Oct 21
12:00 AM
Thu, Oct 21
1:00 AM
Thu, Oct 21
2:00 AM
Thu, Oct 21
3:00 AM
Thu, Oct 21
4:00 AM
Thu, Oct 21
5:00 AM
Thu, Oct 21
6:00 AM
Thu, Oct 21
7:00 AM
Thu, Oct 21
8:00 AM
Thu, Oct 21
9:00 AM
Thu, Oct 21
10:00 AM
Thu, Oct 21
11:00 AM
Thu, Oct 21
12:00 PM
Thu, Oct 21
1:00 PM
Thu, Oct 21
2:00 PM
Thu, Oct 21
3:00 PM
Thu, Oct 21
4:00 PM
Thu, Oct 21
5:00 PM
Thu, Oct 21
6:00 PM
Thu, Oct 21
7:00 PM
Thu, Oct 21
8:00 PM
Thu, Oct 21
9:00 PM
Thu, Oct 21
10:00 PM
Thu, Oct 21
11:00 PM
Fri, Oct 22
12:00 AM
Fri, Oct 22
1:00 AM
Fri, Oct 22
2:00 AM
Fri, Oct 22
3:00 AM
Fri, Oct 22
4:00 AM
Fri, Oct 22
5:00 AM
Fri, Oct 22
6:00 AM
Fri, Oct 22
7:00 AM
Fri, Oct 22
8:00 AM
Fri, Oct 22
9:00 AM
Fri, Oct 22
10:00 AM
Fri, Oct 22
11:00 AM
Fri, Oct 22
12:00 PM
Fri, Oct 22
1:00 PM
Fri, Oct 22
2:00 PM
Fri, Oct 22
3:00 PM
Fri, Oct 22
4:00 PM
Fri, Oct 22
5:00 PM
Condition
Clouds

Clouds

Clouds

Clouds

Clouds

Clouds

Clouds

Clouds

Clear

Clouds

Clear

Clear

Clear

Clouds

Clouds

Clouds

Clouds

Clouds

Clouds

Clouds

Clouds

Clouds

Clouds

Clouds

Clouds

Clouds

Clouds

Clouds

Clouds

Clouds

Clouds

Clouds

Clouds

Clouds

Clouds

Clouds

Clouds

Clouds

Clouds

Clouds

Clouds

Clouds

Clouds

Clouds

Clouds

Clouds

Clouds

Clouds
Temperature 65°F64°F63°F62°F62°F60°F60°F60°F59°F59°F59°F59°F59°F61°F62°F63°F66°F68°F68°F69°F70°F70°F68°F64°F59°F55°F53°F52°F51°F50°F49°F49°F49°F49°F50°F51°F51°F52°F52°F54°F55°F57°F60°F61°F63°F63°F63°F61°F
Feels Like 65°F64°F63°F62°F62°F60°F61°F60°F59°F59°F59°F59°F59°F61°F62°F63°F67°F68°F68°F68°F69°F69°F67°F63°F57°F53°F52°F50°F49°F48°F48°F48°F49°F49°F49°F49°F50°F50°F51°F52°F54°F56°F58°F60°F62°F62°F62°F60°F
Cloudiness 28%30%57%71%86%80%73%62%2%14%9%7%9%22%100%100%96%96%96%96%67%34%25%20%17%16%13%22%22%17%16%16%32%42%52%61%69%74%100%100%100%100%100%98%60%71%80%85%
Visibility 6 mi6 mi6 mi6 mi6 mi6 mi6 mi6 mi6 mi6 mi6 mi6 mi6 mi6 mi6 mi6 mi6 mi6 mi6 mi6 mi6 mi6 mi6 mi6 mi6 mi6 mi6 mi6 mi6 mi6 mi6 mi6 mi6 mi6 mi6 mi6 mi6 mi6 mi6 mi6 mi6 mi6 mi6 mi6 mi6 mi6 mi6 mi6 mi
Precipitation 0%0%0%0%0%0%0%0%0%0%0%0%0%0%2%2%0%0%0%16%15%8%5%4%4%4%0%0%0%0%0%0%0%0%0%0%0%0%0%0%0%0%0%0%0%0%0%0%
Humidity 80%81%84%87%88%93%92%91%91%90%90%92%93%89%90%91%85%81%79%68%55%50%50%56%62%65%68%72%75%79%82%84%83%83%82%80%79%78%79%76%73%70%66%64%60%58%61%64%
Dew Point 59°F58°F58°F58°F58°F58°F58°F57°F56°F56°F56°F56°F56°F57°F59°F60°F61°F62°F61°F57°F53°F50°F49°F48°F45°F43°F43°F43°F43°F44°F44°F44°F44°F44°F44°F44°F45°F45°F45°F46°F46°F47°F48°F48°F49°F48°F49°F49°F
Pressure 30.06"30.06"30.06"30.06"30.06"30.06"30.06"30.03"30.03"30.03"30"30"30"29.97"30"30"30"29.97"29.97"29.94"29.94"29.94"29.94"29.97"30"30.03"30.03"30.06"30.06"30.06"30.06"30.06"30.06"30.06"30.06"30.06"30.06"30.06"30.09"30.09"30.09"30.09"30.09"30.06"30.03"30.03"30.03"30"
Wind Speed 5.1 mph6.1 mph6.8 mph7.4 mph8 mph8 mph8.8 mph9 mph8.6 mph9.1 mph9.5 mph9.1 mph9.4 mph10.8 mph10.4 mph10.8 mph12.5 mph12.5 mph11.6 mph12.4 mph13.3 mph13 mph12 mph10.2 mph7.7 mph6.5 mph6 mph5.7 mph5.1 mph4.7 mph3.8 mph3.2 mph2.7 mph3.2 mph3.4 mph3.4 mph3.8 mph4.4 mph3.6 mph4.9 mph4.6 mph5.5 mph6.2 mph5.8 mph6.2 mph6.6 mph5.6 mph3.4 mph
Wind
Direction
194°
SSW
180°
S
180°
S
187°
S
198°
SSW
199°
SSW
197°
SSW
197°
SSW
195°
SSW
195°
SSW
199°
SSW
194°
SSW
194°
SSW
199°
SSW
206°
SSW
214°
SW
232°
SW
245°
WSW
250°
WSW
258°
WSW
261°
W
264°
W
272°
W
284°
WNW
298°
WNW
304°
NW
301°
WNW
305°
NW
304°
NW
307°
NW
314°
NW
302°
WNW
284°
WNW
260°
W
252°
WSW
249°
WSW
239°
WSW
244°
WSW
229°
SW
257°
WSW
257°
WSW
257°
WSW
266°
W
267°
W
271°
W
275°
W
269°
W
250°
WSW

Daily Forecast

Date High Low Precip. Humidity
Today
Oct 20

Clear
69 °F
49 °F
0%
53%
Thursday
Oct 21

Clouds
70 °F
50 °F
16%
79%
Friday
Oct 22

Clouds
63 °F
49 °F
0%
64%
Saturday
Oct 23

Rain
65 °F
49 °F
29%
74%
Sunday
Oct 24

Rain
75 °F
60 °F
100%
68%
Monday
Oct 25

Rain
76 °F
64 °F
100%
89%
Tuesday
Oct 26

Rain
70 °F
55 °F
83%
63%
Wednesday
Oct 27

Clouds
68 °F
50 °F
0%
62%
Thursday
Oct 28

Rain
63 °F
57 °F
100%
95%
Friday
Oct 29

Rain
61 °F
50 °F
100%
52%
Saturday
Oct 30

Clear
56 °F
42 °F
0%
41%
Sunday
Oct 31

Clear
60 °F
41 °F
0%
46%
Monday
Nov 1

Clouds
63 °F
46 °F
0%
51%
Tuesday
Nov 2

Rain
63 °F
44 °F
79%
62%
Wednesday
Nov 3

Rain
48 °F
40 °F
100%
85%
Thursday
Nov 4

Rain
50 °F
43 °F
37%
63%

Temperature 8-14 Day Outlook



Precipitation 8-14 Day Outlook




Quick Links
Nolin River Lake News
Nolin River Lake Photos
Nolin River Lake Videos




About Us
Contact Us
Site Map
Search Site
Advertise With Us
   
NolinRiver.USLakes.info
THE NOLIN RIVER LAKE WEBSITE

Copyright 2021, Lakes Online
Privacy    |    Legal